Location: Chakepay
(13.3931°S, 72.1925°W)
Time: 18:54:26
(UTC+00:00)

Cosmos 2151 - Pass Details

Date: 15 November 2019
Orbit: 581 x 602 km, 82.5° (Epoch: 08 December)

Event Time Altitude Azimuth Distance (km) Brightness Sun altitude
Rises 09:17:33 0° 179° (S) 2,840 6.8 -13.1°
Reaches altitude 10° 09:19:47 10° 175° (S) 1,937 6.0 -12.6°
Maximum altitude 09:24:01 60° 95° (E) 686 3.6 -11.6°
Drops below altitude 10° 09:28:13 10° 15° (NNE) 1,929 5.5 -10.7°
Sets 09:30:26 0° 11° (N) 2,828 6.3 -10.2°
